| time (UTC) | temp F | wind direction | speed knots | gust knots | rain 1hr in | rain 24hr in | rain mn in | humidity % | barometer mb |
| 20260506221005 | 62 | 9 | 0.9 | 2.6 | 0.02 | 0.05 | 0.05 | 80 | 1013.4 |
| 20260506220005 | 62 | 101 | 0.0 | 2.6 | 0.02 | 0.05 | 0.05 | 78 | 1013.4 |
| 20260506215006 | 62 | 355 | 4.3 | 4.3 | 0.02 | 0.05 | 0.05 | 76 | 1013.2 |
| 20260506214004 | 62 | 313 | 1.7 | 8.7 | 0.00 | 0.03 | 0.03 | 73 | 1013.4 |
| 20260506213211 | 62 | 36 | 0.9 | 7.0 | 0.00 | 0.03 | 0.03 | 73 | 1013.4 |
| 20260506212004 | 62 | 30 | 2.6 | 7.8 | 0.00 | 0.03 | 0.03 | 73 | 1013.5 |
| 20260506211004 | 62 | 9 | 2.6 | 5.2 | 0.00 | 0.03 | 0.03 | 73 | 1013.5 |
| 20260506210211 | 62 | 351 | 2.6 | 7.0 | 0.00 | 0.03 | 0.03 | 74 | 1013.6 |
| 20260506205004 | 62 | 5 | 7.0 | 9.6 | 0.00 | 0.03 | 0.03 | 74 | 1013.5 |
| 20260506204004 | 62 | 22 | 3.5 | 7.8 | 0.00 | 0.03 | 0.03 | 74 | 1014.0 |
| 20260506203004 | 62 | 22 | 3.5 | 7.0 | 0.00 | 0.03 | 0.03 | 74 | 1013.9 |
| 20260506202004 | 61 | 5 | 1.7 | 8.7 | 0.00 | 0.03 | 0.03 | 75 | 1013.8 |
| 20260506201004 | 61 | 302 | 1.7 | 5.2 | 0.00 | 0.03 | 0.03 | 74 | 1014.1 |
| 20260506200004 | 61 | 336 | 2.6 | 7.0 | 0.00 | 0.03 | 0.03 | 75 | 1014.0 |
| 20260506195004 | 60 | 23 | 7.0 | 7.8 | 0.00 | 0.03 | 0.03 | 76 | 1014.3 |
| 20260506194211 | 59 | 338 | 4.3 | 8.7 | 0.00 | 0.03 | 0.03 | 77 | 1014.5 |
| 20260506193004 | 58 | 342 | 5.2 | 9.6 | 0.00 | 0.03 | 0.03 | 79 | 1014.5 |
| 20260506192004 | 58 | 22 | 2.6 | 8.7 | 0.00 | 0.03 | 0.03 | 80 | 1014.6 |
| 20260506191004 | 57 | 334 | 1.7 | 7.8 | 0.00 | 0.03 | 0.03 | 81 | 1014.9 |
| 20260506190004 | 56 | 340 | 1.7 | 4.3 | 0.00 | 0.03 | 0.03 | 82 | 1015.0 |
| 20260506185004 | 56 | 14 | 2.6 | 3.5 | 0.00 | 0.03 | 0.03 | 82 | 1015.1 |
| 20260506184004 | 55 | 360 | 2.6 | 4.3 | 0.00 | 0.03 | 0.03 | 82 | 1015.3 |
| 20260506183005 | 55 | 333 | 0.9 | 3.5 | 0.00 | 0.03 | 0.03 | 83 | 1015.4 |
| 20260506182004 | 55 | 17 | 0.9 | 5.2 | 0.00 | 0.03 | 0.03 | 83 | 1015.3 |
| 20260506181004 | 55 | 25 | 4.3 | 9.6 | 0.00 | 0.03 | 0.03 | 82 | 1015.1 |
| 20260506180005 | 55 | 350 | 3.5 | 12.2 | 0.00 | 0.03 | 0.03 | 83 | 1014.7 |
| 20260506175005 | 55 | 17 | 2.6 | 13.9 | 0.00 | 0.03 | 0.03 | 83 | 1014.4 |
| 20260506174005 | 55 | 350 | 7.0 | 12.2 | 0.00 | 0.03 | 0.03 | 84 | 1014.1 |
| 20260506173004 | 55 | 5 | 7.8 | 13.0 | 0.00 | 0.03 | 0.03 | 84 | 1014.1 |
| 20260506172004 | 54 | 350 | 7.0 | 11.3 | 0.00 | 0.03 | 0.03 | 85 | 1014.1 |
| 20260506171004 | 54 | 5 | 4.3 | 8.7 | 0.00 | 0.03 | 0.03 | 85 | 1014.5 |
| 20260506170004 | 54 | 14 | 4.3 | 9.6 | 0.00 | 0.03 | 0.03 | 86 | 1014.7 |
| 20260506165211 | 54 | 330 | 2.6 | 9.6 | 0.00 | 0.03 | 0.03 | 86 | 1014.5 |
| 20260506164004 | 54 | 20 | 4.3 | 8.7 | 0.00 | 0.03 | 0.03 | 87 | 1014.3 |
| 20260506163004 | 53 | 16 | 4.3 | 9.6 | 0.00 | 0.03 | 0.03 | 86 | 1014.7 |
| 20260506162004 | 53 | 33 | 3.5 | 8.7 | 0.00 | 0.03 | 0.03 | 86 | 1014.6 |
| 20260506161003 | 53 | 355 | 3.5 | 9.6 | 0.00 | 0.03 | 0.03 | 86 | 1014.4 |
| 20260506160004 | 53 | 43 | 3.5 | 10.4 | 0.00 | 0.03 | 0.03 | 87 | 1014.7 |
| 20260506155004 | 53 | 42 | 3.5 | 8.7 | 0.00 | 0.03 | 0.03 | 87 | 1014.3 |
| 20260506154004 | 53 | 328 | 2.6 | 10.4 | 0.00 | 0.03 | 0.03 | 88 | 1014.1 |
| 20260506153004 | 54 | 46 | 6.1 | 11.3 | 0.01 | 0.03 | 0.03 | 89 | 1013.9 |
| 20260506152004 | 53 | 5 | 7.0 | 13.0 | 0.03 | 0.03 | 0.03 | 90 | 1013.4 |
| 20260506151004 | 52 | 40 | 4.3 | 8.7 | 0.03 | 0.03 | 0.03 | 89 | 1013.7 |
| 20260506150211 | 52 | 355 | 1.7 | 5.2 | 0.03 | 0.03 | 0.03 | 89 | 1015.2 |
| 20260506145004 | 52 | 319 | 1.7 | 7.0 | 0.03 | 0.03 | 0.03 | 88 | 1015.4 |
| 20260506144004 | 52 | 9 | 6.1 | 9.6 | 0.03 | 0.03 | 0.03 | 87 | 1015.1 |
| 20260506143004 | 52 | 28 | 3.5 | 7.8 | 0.02 | 0.02 | 0.02 | 86 | 1015.0 |
| 20260506142004 | 52 | 355 | 3.5 | 5.2 | 0.00 | 0.00 | 0.00 | 84 | 1016.1 |
| 20260506141212 | 52 | 355 | 2.6 | 7.0 | 0.00 | 0.00 | 0.00 | 84 | 1016.3 |
| 20260506140004 | 52 | 327 | 2.6 | 13.0 | 0.00 | 0.00 | 0.00 | 83 | 1014.0 |
| 20260506135004 | 53 | 10 | 7.0 | 12.2 | 0.00 | 0.00 | 0.00 | 82 | 1013.4 |
| 20260506134004 | 53 | 48 | 5.2 | 9.6 | 0.00 | 0.00 | 0.00 | 81 | 1014.4 |
| 20260506133004 | 53 | 19 | 6.1 | 11.3 | 0.00 | 0.00 | 0.00 | 81 | 1014.6 |
| 20260506132004 | 54 | 10 | 6.1 | 11.3 | 0.00 | 0.00 | 0.00 | 81 | 1014.4 |
| 20260506131004 | 54 | 314 | 5.2 | 12.2 | 0.00 | 0.00 | 0.00 | 80 | 1013.9 |
| 20260506130211 | 54 | 35 | 5.2 | 10.4 | 0.00 | 0.00 | 0.00 | 80 | 1013.6 |
| 20260506125004 | 54 | 346 | 5.2 | 10.4 | 0.00 | 0.00 | 0.00 | 79 | 1012.9 |
| 20260506124004 | 54 | 5 | 5.2 | 9.6 | 0.00 | 0.00 | 0.00 | 79 | 1012.9 |
| 20260506123004 | 55 | 312 | 5.2 | 10.4 | 0.00 | 0.00 | 0.00 | 78 | 1012.8 |
| 20260506122004 | 55 | 323 | 3.5 | 11.3 | 0.00 | 0.00 | 0.00 | 78 | 1012.6 |
| 20260506121004 | 56 | 350 | 3.5 | 9.6 | 0.00 | 0.00 | 0.00 | 78 | 1012.4 |
| 20260506120005 | 56 | 342 | 2.6 | 10.4 | 0.00 | 0.00 | 0.00 | 77 | 1012.3 |
| 20260506115005 | 57 | 344 | 4.3 | 10.4 | 0.00 | 0.00 | 0.00 | 77 | 1012.4 |
| 20260506114212 | 57 | 324 | 3.5 | 8.7 | 0.00 | 0.00 | 0.00 | 77 | 1012.2 |
| 20260506113004 | 58 | 338 | 2.6 | 7.8 | 0.00 | 0.00 | 0.00 | 78 | 1012.2 |
| 20260506112004 | 58 | 360 | 7.8 | 8.7 | 0.00 | 0.00 | 0.00 | 77 | 1012.0 |
| 20260506111004 | 58 | 338 | 7.8 | 10.4 | 0.00 | 0.00 | 0.00 | 76 | 1011.9 |
| 20260506110004 | 58 | 348 | 3.5 | 8.7 | 0.00 | 0.00 | 0.00 | 76 | 1011.5 |
| 20260506105004 | 58 | 29 | 3.5 | 7.8 | 0.00 | 0.00 | 0.00 | 77 | 1011.4 |
| 20260506104004 | 58 | 22 | 5.2 | 7.8 | 0.00 | 0.00 | 0.00 | 77 | 1011.5 |
| 20260506103004 | 58 | 24 | 4.3 | 8.7 | 0.00 | 0.00 | 0.00 | 77 | 1011.1 |
| 20260506102004 | 58 | 347 | 4.3 | 8.7 | 0.00 | 0.00 | 0.00 | 77 | 1010.9 |
| 20260506101004 | 59 | 329 | 2.6 | 7.8 | 0.00 | 0.00 | 0.00 | 78 | 1010.8 |
| 20260506100211 | 59 | 329 | 2.6 | 7.0 | 0.00 | 0.00 | 0.00 | 78 | 1010.7 |
| 20260506095004 | 59 | 15 | 3.5 | 8.7 | 0.00 | 0.00 | 0.00 | 78 | 1010.4 |
| 20260506094004 | 59 | 355 | 2.6 | 7.8 | 0.00 | 0.00 | 0.00 | 79 | 1010.2 |
| 20260506093004 | 59 | 331 | 3.5 | 7.8 | 0.00 | 0.00 | 0.00 | 79 | 1010.3 |
| 20260506092004 | 59 | 17 | 2.6 | 7.8 | 0.00 | 0.00 | 0.00 | 79 | 1010.2 |
| 20260506091004 | 59 | 338 | 5.2 | 7.8 | 0.00 | 0.00 | 0.00 | 79 | 1010.2 |
| 20260506090004 | 60 | 5 | 2.6 | 8.7 | 0.00 | 0.00 | 0.00 | 79 | 1010.2 |
| 20260506085004 | 60 | 5 | 3.5 | 7.8 | 0.00 | 0.00 | 0.00 | 79 | 1010.2 |
| 20260506084004 | 60 | 360 | 4.3 | 7.0 | 0.00 | 0.00 | 0.00 | 79 | 1010.2 |
| 20260506083004 | 60 | 331 | 3.5 | 7.0 | 0.00 | 0.00 | 0.00 | 79 | 1010.0 |
| 20260506082004 | 60 | 5 | 4.3 | 7.8 | 0.00 | 0.00 | 0.00 | 79 | 1009.9 |
| 20260506081004 | 60 | 360 | 10.4 | 10.4 | 0.00 | 0.00 | 0.00 | 79 | 1009.8 |
| 20260506073004 | 61 | 36 | 3.5 | 7.0 | 0.00 | 0.00 | 0.00 | 80 | 1009.7 |
| 20260506072005 | 61 | 351 | 3.5 | 5.2 | 0.00 | 0.00 | 0.00 | 79 | 1009.7 |
| 20260506071004 | 61 | 14 | 2.6 | 4.3 | 0.00 | 0.00 | 0.00 | 79 | 1009.6 |
| 20260506062004 | 62 | 346 | 3.5 | 7.0 | 0.00 | 0.00 | 0.00 | 76 | 1009.3 |
| 20260506061004 | 62 | 341 | 2.6 | 7.8 | 0.00 | 0.00 | 0.00 | 76 | 1009.3 |
| 20260506051004 | 64 | 28 | 2.6 | 8.7 | 0.00 | 0.00 | 0.00 | 74 | 1009.4 |
| 20260506045004 | 65 | 18 | 1.7 | 8.7 | 0.00 | 0.00 | 0.00 | 73 | 1009.4 |
| 20260506044004 | 65 | 349 | 4.3 | 8.7 | 0.00 | 0.00 | 0.00 | 73 | 1009.3 |
| 20260506043211 | 66 | 11 | 3.5 | 9.6 | 0.00 | 0.00 | 0.00 | 72 | 1009.3 |
| 20260506042004 | 66 | 347 | 5.2 | 8.7 | 0.00 | 0.00 | 0.00 | 72 | 1009.1 |
| 20260506041004 | 67 | 5 | 2.6 | 9.6 | 0.00 | 0.00 | 0.00 | 72 | 1009.4 |
| 20260506040004 | 67 | 20 | 6.1 | 9.6 | 0.00 | 0.00 | 0.00 | 71 | 1009.3 |
| 20260506035004 | 67 | 338 | 4.3 | 9.6 | 0.00 | 0.00 | 0.00 | 71 | 1009.2 |
| 20260506034004 | 68 | 355 | 3.5 | 8.7 | 0.00 | 0.00 | 0.00 | 71 | 1009.1 |
| 20260506033005 | 68 | 334 | 1.7 | 10.4 | 0.00 | 0.00 | 0.00 | 71 | 1008.9 |
| 20260506032211 | 68 | 351 | 7.8 | 11.3 | 0.00 | 0.00 | 0.00 | 70 | 1008.7 |
| 20260506031004 | 68 | 360 | 8.7 | 9.6 | 0.00 | 0.00 | 0.00 | 70 | 1008.2 |
| 20260506030004 | 69 | 5 | 4.3 | 8.7 | 0.00 | 0.00 | 0.00 | 70 | 1007.9 |
| 20260506025004 | 69 | 342 | 5.2 | 8.7 | 0.00 | 0.00 | 0.00 | 69 | 1007.6 |
| 20260506024004 | 70 | 360 | 3.5 | 9.6 | 0.00 | 0.00 | 0.00 | 69 | 1007.5 |
| 20260506023004 | 70 | 346 | 3.5 | 12.2 | 0.00 | 0.00 | 0.00 | 68 | 1007.3 |
| 20260506022004 | 71 | 342 | 7.0 | 9.6 | 0.00 | 0.00 | 0.00 | 68 | 1007.0 |
| 20260506021004 | 72 | 39 | 8.7 | 9.6 | 0.00 | 0.00 | 0.00 | 67 | 1006.8 |
| 20260506020004 | 72 | 355 | 4.3 | 7.8 | 0.00 | 0.00 | 0.00 | 68 | 1006.7 |
| 20260506015004 | 72 | 338 | 4.3 | 7.8 | 0.00 | 0.00 | 0.00 | 67 | 1006.5 |
| 20260506014004 | 72 | 14 | 2.6 | 7.8 | 0.00 | 0.00 | 0.00 | 66 | 1006.3 |
| 20260506013004 | 73 | 323 | 1.7 | 7.0 | 0.00 | 0.00 | 0.00 | 65 | 1005.9 |
| 20260506012004 | 74 | 9 | 4.3 | 8.7 | 0.00 | 0.00 | 0.00 | 64 | 1005.6 |
| 20260506011004 | 74 | 335 | 3.5 | 8.7 | 0.00 | 0.00 | 0.00 | 64 | 1005.7 |
| 20260506010005 | 75 | 9 | 2.6 | 7.8 | 0.00 | 0.00 | 0.00 | 63 | 1005.3 |
| 20260506005004 | 76 | 44 | 2.6 | 7.8 | 0.00 | 0.00 | 0.00 | 62 | 1005.4 |
| 20260506004005 | 76 | 5 | 7.8 | 10.4 | 0.00 | 0.00 | 0.00 | 62 | 1005.4 |
| 20260506003005 | 77 | 355 | 5.2 | 8.7 | 0.00 | 0.00 | 0.00 | 61 | 1004.9 |
| 20260506002003 | 78 | 335 | 2.6 | 11.3 | 0.00 | 0.00 | 0.00 | 59 | 1004.8 |
| 20260506001004 | 80 | 33 | 7.8 | 12.2 | 0.00 | 0.00 | 0.00 | 58 | 1004.7 |
| 20260506000004 | 81 | 30 | 3.5 | 11.3 | 0.00 | 0.00 | 0.00 | 58 | 1004.7 |
| 20260505235004 | 83 | 355 | 8.7 | 13.9 | 0.00 | 0.00 | 0.00 | 57 | 1004.6 |
| 20260505234004 | 85 | 12 | 8.7 | 13.9 | 0.00 | 0.00 | 0.00 | 55 | 1004.2 |
| 20260505233004 | 85 | 44 | 4.3 | 11.3 | 0.00 | 0.00 | 0.00 | 50 | 1003.8 |
| 20260505232004 | 88 | 67 | 7.0 | 17.4 | 0.00 | 0.00 | 0.00 | 46 | 1003.7 |
| 20260505231004 | 93 | 161 | 1.7 | 8.7 | 0.00 | 0.00 | 0.00 | 40 | 1003.4 |
| 20260505230004 | 93 | 234 | 2.6 | 4.3 | 0.00 | 0.00 | 0.00 | 41 | 1003.3 |
| 20260505225004 | 93 | 259 | 3.5 | 4.3 | 0.00 | 0.00 | 0.00 | 38 | 1003.3 |
| 20260505224004 | 94 | 211 | 3.5 | 5.2 | 0.00 | 0.00 | 0.00 | 37 | 1003.3 |
| 20260505223004 | 94 | 189 | 1.7 | 5.2 | 0.00 | 0.00 | 0.00 | 38 | 1003.2 |